NIGCOMSAT 1R

Last updated on Sun Jun 21 2026 00:03:05 GMT+0000 (Coordinated Universal Time)

1 38014U 11077A 26171.25786353 .00000140 00000+0 00000+0 0 9991 2 38014 0.0473 111.0877 0002526 241.1463 51.5414 1.00271454 52981
UTC large
Height (km)
Speed (km/s)
/
Latitude / Longitude
Inclination (degrees)
Orbital Period (minutes)
Azimuth
Elevation
Range (km)
Doppler Factor

Next 0 passes for location: London (51.5072 / 0.1276)

No passes found over London.
NIGCOMSAT 1R